TimeCDT,TemperatureF,Dew PointF,Humidity,Sea Level PressureIn,VisibilityMPH,Wind Direction,Wind SpeedMPH,Gust SpeedMPH,PrecipitationIn,Events,Conditions,WindDirDegrees,DateUTC
12:15 AM,46.4,44.6,93,30.09,10.0,Calm,Calm,-,N/A,,Clear,0,2013-09-28 05:15:00
12:35 AM,46.4,44.6,93,30.08,1.0,Calm,Calm,-,N/A,,Mist,0,2013-09-28 05:35:00
12:55 AM,46.4,44.6,93,30.08,10.0,Calm,Calm,-,N/A,,Clear,0,2013-09-28 05:55:00
1:15 AM,46.4,44.6,93,30.08,10.0,Calm,Calm,-,N/A,,Clear,0,2013-09-28 06:15:00
1:35 AM,46.4,44.6,93,30.08,10.0,Calm,Calm,-,N/A,,Clear,0,2013-09-28 06:35:00
1:55 AM,46.4,42.8,87,30.08,10.0,Calm,Calm,-,N/A,,Clear,0,2013-09-28 06:55:00
2:15 AM,46.4,42.8,87,30.08,10.0,Calm,Calm,-,N/A,,Clear,0,2013-09-28 07:15:00
2:35 AM,46.4,42.8,87,30.07,7.0,Calm,Calm,-,N/A,,Clear,0,2013-09-28 07:35:00
2:55 AM,46.4,42.8,87,30.07,7.0,Calm,Calm,-,N/A,,Scattered Clouds,0,2013-09-28 07:55:00
3:15 AM,48.2,46.4,93,30.07,10.0,Calm,Calm,-,N/A,,Clear,0,2013-09-28 08:15:00
3:35 AM,50.0,46.4,87,30.06,10.0,Calm,Calm,-,N/A,,Clear,0,2013-09-28 08:35:00
3:55 AM,51.8,50.0,94,30.07,10.0,Calm,Calm,-,N/A,,Clear,0,2013-09-28 08:55:00
4:15 AM,51.8,50.0,94,30.06,10.0,Calm,Calm,-,N/A,,Clear,0,2013-09-28 09:15:00
4:35 AM,50.0,46.4,87,30.06,10.0,Calm,Calm,-,N/A,,Clear,0,2013-09-28 09:35:00
4:55 AM,51.8,50.0,94,30.06,10.0,Calm,Calm,-,N/A,,Clear,0,2013-09-28 09:55:00
5:15 AM,50.0,46.4,87,30.07,10.0,Calm,Calm,-,N/A,,Clear,0,2013-09-28 10:15:00
5:35 AM,50.0,48.2,94,30.06,1.0,Calm,Calm,-,N/A,,Mist,0,2013-09-28 10:35:00
5:55 AM,50.0,46.4,87,30.07,5.0,Calm,Calm,-,N/A,,Clear,0,2013-09-28 10:55:00
6:15 AM,50.0,48.2,94,30.07,4.0,Calm,Calm,-,N/A,,Clear,0,2013-09-28 11:15:00
6:35 AM,50.0,46.4,87,30.07,10.0,Calm,Calm,-,N/A,,Clear,0,2013-09-28 11:35:00
6:55 AM,48.2,46.4,93,30.08,0.2,Calm,Calm,-,N/A,Fog,Fog,0,2013-09-28 11:55:00
7:15 AM,48.2,46.4,93,30.08,0.2,Calm,Calm,-,N/A,Fog,Fog,0,2013-09-28 12:15:00
7:35 AM,46.4,44.6,93,30.07,5.0,Calm,Calm,-,N/A,,Scattered Clouds,0,2013-09-28 12:35:00
7:55 AM,55.4,53.6,94,30.06,10.0,SSE,3.5,-,N/A,,Clear,160,2013-09-28 12:55:00
8:15 AM,57.2,55.4,94,30.06,10.0,SSE,4.6,-,N/A,,Clear,160,2013-09-28 13:15:00
8:35 AM,59.0,53.6,82,30.06,10.0,SSE,4.6,-,N/A,,Clear,160,2013-09-28 13:35:00
8:55 AM,60.8,53.6,77,30.05,10.0,South,6.9,-,N/A,,Clear,180,2013-09-28 13:55:00
9:15 AM,60.8,53.6,77,30.05,10.0,South,6.9,-,N/A,,Clear,170,2013-09-28 14:15:00
9:35 AM,64.4,55.4,73,30.05,10.0,South,8.1,-,N/A,,Clear,180,2013-09-28 14:35:00
9:55 AM,64.4,53.6,68,30.04,10.0,SSE,6.9,-,N/A,,Clear,160,2013-09-28 14:55:00
10:15 AM,68.0,53.6,60,30.03,10.0,SSE,9.2,-,N/A,,Clear,160,2013-09-28 15:15:00
10:35 AM,69.8,53.6,56,30.02,10.0,SSE,10.4,-,N/A,,Clear,150,2013-09-28 15:35:00
10:55 AM,71.6,53.6,53,30.01,10.0,SSE,11.5,19.6,N/A,,Clear,150,2013-09-28 15:55:00
11:15 AM,71.6,53.6,53,30.01,10.0,South,11.5,21.9,N/A,,Clear,190,2013-09-28 16:15:00
11:35 AM,71.6,53.6,53,30.00,10.0,South,16.1,24.2,N/A,,Clear,190,2013-09-28 16:35:00
11:55 AM,73.4,53.6,50,29.98,10.0,SSE,15.0,19.6,N/A,,Clear,160,2013-09-28 16:55:00
12:15 PM,73.4,51.8,47,29.97,10.0,South,11.5,19.6,N/A,,Clear,170,2013-09-28 17:15:00
12:35 PM,73.4,51.8,47,29.97,10.0,SSE,13.8,18.4,N/A,,Clear,160,2013-09-28 17:35:00
12:55 PM,73.4,51.8,47,29.95,10.0,South,12.7,19.6,N/A,,Clear,170,2013-09-28 17:55:00
1:15 PM,75.2,53.6,47,29.94,10.0,South,10.4,-,N/A,,Clear,170,2013-09-28 18:15:00
1:35 PM,75.2,53.6,47,29.92,10.0,SSE,12.7,20.7,N/A,,Clear,160,2013-09-28 18:35:00
1:55 PM,77.0,53.6,44,29.91,10.0,SSE,15.0,20.7,N/A,,Clear,160,2013-09-28 18:55:00
2:15 PM,77.0,53.6,44,29.90,10.0,SSE,15.0,20.7,N/A,,Scattered Clouds,160,2013-09-28 19:15:00
2:35 PM,77.0,55.4,47,29.90,10.0,South,12.7,21.9,N/A,,Scattered Clouds,170,2013-09-28 19:35:00
2:55 PM,77.0,53.6,44,29.89,10.0,South,20.7,29.9,N/A,,Mostly Cloudy,190,2013-09-28 19:55:00
3:15 PM,77.0,53.6,44,29.89,10.0,South,24.2,31.1,N/A,,Mostly Cloudy,190,2013-09-28 20:15:00
3:35 PM,77.0,55.4,47,29.89,10.0,South,13.8,17.3,N/A,,Mostly Cloudy,170,2013-09-28 20:35:00
3:55 PM,77.0,55.4,47,29.88,10.0,South,13.8,24.2,N/A,,Mostly Cloudy,180,2013-09-28 20:55:00
4:15 PM,77.0,55.4,47,29.86,10.0,South,13.8,21.9,N/A,,Scattered Clouds,170,2013-09-28 21:15:00
4:55 PM,73.4,55.4,53,29.86,10.0,SE,8.1,-,N/A,,Mostly Cloudy,130,2013-09-28 21:55:00
5:15 PM,73.4,55.4,53,29.85,10.0,South,15.0,20.7,N/A,,Overcast,180,2013-09-28 22:15:00
5:35 PM,75.2,53.6,47,29.85,10.0,South,11.5,18.4,N/A,,Mostly Cloudy,180,2013-09-28 22:35:00
5:55 PM,75.2,53.6,47,29.85,10.0,South,10.4,-,N/A,,Mostly Cloudy,170,2013-09-28 22:55:00
6:15 PM,73.4,53.6,50,29.85,10.0,South,9.2,-,N/A,,Overcast,170,2013-09-28 23:15:00
6:35 PM,73.4,53.6,50,29.85,10.0,South,9.2,-,N/A,,Overcast,170,2013-09-28 23:35:00
6:55 PM,73.4,53.6,50,29.85,10.0,South,8.1,-,N/A,,Overcast,180,2013-09-28 23:55:00
7:15 PM,73.4,53.6,50,29.85,10.0,South,9.2,-,N/A,,Overcast,190,2013-09-29 00:15:00
7:35 PM,73.4,55.4,53,29.86,10.0,WSW,11.5,-,N/A,,Overcast,240,2013-09-29 00:35:00
7:55 PM,71.6,59.0,64,29.87,10.0,SW,10.4,25.3,N/A,Rain,Rain,230,2013-09-29 00:55:00
8:15 PM,66.2,62.6,88,29.88,3.0,SW,12.7,23.0,0.03,Rain,Rain,220,2013-09-29 01:15:00
8:35 PM,66.2,62.6,88,29.88,4.0,SSW,11.5,17.3,0.08,Rain,Light Rain,210,2013-09-29 01:35:00
9:15 PM,66.2,62.6,88,29.88,5.0,South,9.2,-,0.01,,Heavy Drizzle,190,2013-09-29 02:15:00
9:35 PM,59.0,55.4,88,29.90,4.0,West,10.4,16.1,0.09,Rain,Rain,280,2013-09-29 02:35:00
9:55 PM,59.0,55.4,88,29.90,7.0,WNW,9.2,17.3,0.11,,Drizzle,290,2013-09-29 02:55:00
10:15 PM,59.0,53.6,82,29.92,5.0,WNW,13.8,18.4,0.02,Rain,Heavy Rain,290,2013-09-29 03:15:00
10:35 PM,57.2,53.6,88,29.93,4.0,WNW,17.3,25.3,0.04,Rain,Rain,300,2013-09-29 03:35:00
10:55 PM,53.6,50.0,88,29.94,7.0,WNW,12.7,-,0.08,Rain,Heavy Rain,300,2013-09-29 03:55:00
11:15 PM,53.6,50.0,88,29.96,7.0,WNW,11.5,-,0.01,,Drizzle,290,2013-09-29 04:15:00
11:35 PM,53.6,50.0,88,29.96,5.0,WNW,8.1,-,0.03,Rain,Light Rain,300,2013-09-29 04:35:00
11:55 PM,53.6,50.0,88,29.95,10.0,WNW,4.6,-,0.06,Rain,Light Rain,290,2013-09-29 04:55:00